AAL1139 KTPA-KDFW

Flight info

Callsign AAL1139
Flight time 2h 22m
Altitude 34000
Route DORMR3 FROOT ROZZI Y280 REDFN Q105 HRV J58 AEX PNUTS WHINY4
Aircraft A321/M-SDE3FGHIRWY/LB1

Departure

Time 2026-05-07 15:32
Airport Tampa International Airport (KTPA)

Arrival

Time 2026-05-07 17:55
Airport Dallas Fort Worth International Airport (KDFW)
Time Latitude Longitude Altitude Speed Heading
2026-05-07 14:30 27.97774 -82.53805 44 ft 0 kts 204°
2026-05-07 15:22 27.97786 -82.53799 42 ft 4 kts 204°
2026-05-07 15:22 27.97805 -82.53789 42 ft 4 kts 201°
2026-05-07 15:23 27.97828 -82.53785 42 ft 4 kts 147°
2026-05-07 15:23 27.97834 -82.53802 41 ft 4 kts 81°
2026-05-07 15:23 27.97830 -82.53832 39 ft 4 kts 81°
2026-05-07 15:23 27.97825 -82.53862 43 ft 4 kts 81°
2026-05-07 15:24 27.97821 -82.53892 43 ft 4 kts 81°
2026-05-07 15:24 27.97817 -82.53919 44 ft 4 kts 82°
2026-05-07 15:24 27.97812 -82.53947 41 ft 4 kts 52°
2026-05-07 15:24 27.97795 -82.53959 42 ft 4 kts 22°
2026-05-07 15:25 27.97786 -82.53963 44 ft 1 kts 22°
2026-05-07 15:27 27.97796 -82.53963 43 ft 4 kts
2026-05-07 15:28 27.97839 -82.53972 44 ft 9 kts 349°
2026-05-07 15:28 27.97916 -82.53975 46 ft 13 kts
2026-05-07 15:28 27.98024 -82.53972 47 ft 18 kts
2026-05-07 15:28 27.98152 -82.53967 47 ft 19 kts
2026-05-07 15:29 27.98282 -82.53962 47 ft 19 kts
2026-05-07 15:29 27.98415 -82.53959 48 ft 19 kts
2026-05-07 15:29 27.98549 -82.53955 48 ft 20 kts
2026-05-07 15:29 27.98690 -82.53950 47 ft 21 kts
2026-05-07 15:30 27.98836 -82.53945 47 ft 21 kts
2026-05-07 15:30 27.98985 -82.53940 47 ft 22 kts
2026-05-07 15:30 27.99141 -82.53934 46 ft 23 kts
2026-05-07 15:30 27.99280 -82.53928 46 ft 15 kts
2026-05-07 15:31 27.99347 -82.53979 46 ft 13 kts 283°
2026-05-07 15:31 27.99351 -82.54083 46 ft 14 kts 271°
2026-05-07 15:31 27.99286 -82.54135 46 ft 13 kts 182°
2026-05-07 15:31 27.99185 -82.54139 48 ft 28 kts 181°
2026-05-07 15:32 27.98748 -82.54153 52 ft 96 kts 181°
2026-05-07 15:32 27.97888 -82.54182 48 ft 150 kts 181°
2026-05-07 15:32 27.96729 -82.54213 278 ft 174 kts 182°
2026-05-07 15:32 27.95505 -82.54335 851 ft 181 kts 194°
2026-05-07 15:33 27.94267 -82.54747 1409 ft 190 kts 198°
2026-05-07 15:33 27.92964 -82.55163 1972 ft 197 kts 197°
2026-05-07 15:33 27.91627 -82.55593 2470 ft 202 kts 198°
2026-05-07 15:33 27.90372 -82.56407 2668 ft 222 kts 228°
2026-05-07 15:34 27.89534 -82.57967 2875 ft 244 kts 240°
2026-05-07 15:34 27.88707 -82.59696 3394 ft 254 kts 240°
2026-05-07 15:34 27.87858 -82.61459 4067 ft 257 kts 241°
2026-05-07 15:34 27.86997 -82.63240 4765 ft 260 kts 240°
2026-05-07 15:35 27.86126 -82.65036 5499 ft 262 kts 241°
2026-05-07 15:35 27.85246 -82.66844 6206 ft 263 kts 241°
2026-05-07 15:35 27.84356 -82.68664 6825 ft 266 kts 240°
2026-05-07 15:35 27.83454 -82.70499 7434 ft 268 kts 240°
2026-05-07 15:36 27.82547 -82.72343 8059 ft 269 kts 240°
2026-05-07 15:36 27.81942 -82.73573 8431 ft 272 kts 240°
2026-05-07 15:36 27.81021 -82.75451 9019 ft 275 kts 240°
2026-05-07 15:36 27.80095 -82.77342 9619 ft 276 kts 240°
2026-05-07 15:37 27.79161 -82.79243 10183 ft 278 kts 241°
2026-05-07 15:37 27.78194 -82.81205 10379 ft 295 kts 241°
2026-05-07 15:37 27.77164 -82.83292 10501 ft 313 kts 241°
2026-05-07 15:37 27.76075 -82.85501 10631 ft 329 kts 241°
2026-05-07 15:38 27.74946 -82.87794 10983 ft 336 kts 241°
2026-05-07 15:38 27.73804 -82.90112 11468 ft 340 kts 241°
2026-05-07 15:38 27.72649 -82.92449 11971 ft 342 kts 241°
2026-05-07 15:38 27.71486 -82.94802 12485 ft 344 kts 242°
2026-05-07 15:39 27.70318 -82.97169 13000 ft 346 kts 242°
2026-05-07 15:39 27.69142 -82.99552 13519 ft 349 kts 242°
2026-05-07 15:39 27.67957 -83.01949 14016 ft 351 kts 242°
2026-05-07 15:39 27.66890 -83.04429 14468 ft 352 kts 251°
2026-05-07 15:40 27.66270 -83.07104 14923 ft 353 kts 262°
2026-05-07 15:40 27.66015 -83.09864 15381 ft 355 kts 265°
2026-05-07 15:40 27.65771 -83.12638 15849 ft 357 kts 265°
2026-05-07 15:40 27.65517 -83.15430 16320 ft 359 kts 265°
2026-05-07 15:41 27.65255 -83.18234 16791 ft 360 kts 265°
2026-05-07 15:41 27.64990 -83.21047 17264 ft 362 kts 265°
2026-05-07 15:41 27.64722 -83.23877 17723 ft 364 kts 265°
2026-05-07 15:41 27.64455 -83.26724 18181 ft 366 kts 265°
2026-05-07 15:42 27.64187 -83.29588 18605 ft 368 kts 265°
2026-05-07 15:42 27.63918 -83.32464 19002 ft 370 kts 265°
2026-05-07 15:42 27.63649 -83.35350 19390 ft 371 kts 265°
2026-05-07 15:42 27.63376 -83.38254 19777 ft 373 kts 265°
2026-05-07 15:43 27.63108 -83.41134 20151 ft 375 kts 265°
2026-05-07 15:43 27.62830 -83.44102 20536 ft 376 kts 265°
2026-05-07 15:43 27.62551 -83.47047 20918 ft 378 kts 265°
2026-05-07 15:43 27.62271 -83.50001 21294 ft 380 kts 265°
2026-05-07 15:44 27.61990 -83.52972 21672 ft 382 kts 264°
2026-05-07 15:44 27.61707 -83.55950 22046 ft 383 kts 264°
2026-05-07 15:44 27.61424 -83.58905 22410 ft 385 kts 264°
2026-05-07 15:44 27.61135 -83.61910 22764 ft 387 kts 264°
2026-05-07 15:45 27.60842 -83.64932 23122 ft 389 kts 264°
2026-05-07 15:45 27.60550 -83.67965 23482 ft 390 kts 264°
2026-05-07 15:45 27.60258 -83.71019 23807 ft 392 kts 264°
2026-05-07 15:45 27.59966 -83.74080 24106 ft 394 kts 264°
2026-05-07 15:46 27.59374 -83.80246 24723 ft 397 kts 264°
2026-05-07 15:46 27.59071 -83.83340 25026 ft 398 kts 264°
2026-05-07 15:46 27.58764 -83.86446 25324 ft 400 kts 264°
2026-05-07 15:47 27.58456 -83.89573 25623 ft 401 kts 264°
2026-05-07 15:47 27.58151 -83.92696 25926 ft 402 kts 264°
2026-05-07 15:47 27.57847 -83.95836 26229 ft 403 kts 264°
2026-05-07 15:47 27.57540 -83.98988 26526 ft 405 kts 264°
2026-05-07 15:48 27.57230 -84.02143 26813 ft 406 kts 264°
2026-05-07 15:48 27.56918 -84.05316 27099 ft 408 kts 264°
2026-05-07 15:48 27.56602 -84.08499 27380 ft 409 kts 264°
2026-05-07 15:48 27.56284 -84.11700 27658 ft 411 kts 264°
2026-05-07 15:49 27.55994 -84.14903 27936 ft 412 kts 267°
2026-05-07 15:49 27.56087 -84.18134 28205 ft 414 kts 276°
2026-05-07 15:49 27.56591 -84.21337 28471 ft 416 kts 279°
2026-05-07 15:49 27.57130 -84.24546 28739 ft 417 kts 279°
2026-05-07 15:50 27.57657 -84.27767 29002 ft 419 kts 279°
2026-05-07 15:50 27.58177 -84.31000 29275 ft 420 kts 279°
2026-05-07 15:50 27.58697 -84.34254 29535 ft 421 kts 279°
2026-05-07 15:50 27.59222 -84.37506 29777 ft 423 kts 279°
2026-05-07 15:51 27.59751 -84.40773 30001 ft 424 kts 279°
2026-05-07 15:51 27.60284 -84.44050 30207 ft 426 kts 279°
2026-05-07 15:51 27.60816 -84.47335 30383 ft 427 kts 279°
2026-05-07 15:51 27.61345 -84.50633 30556 ft 428 kts 279°
2026-05-07 15:52 27.61872 -84.53934 30799 ft 427 kts 279°
2026-05-07 15:52 27.62400 -84.57226 31059 ft 426 kts 279°
2026-05-07 15:52 27.62928 -84.60510 31310 ft 425 kts 279°
2026-05-07 15:52 27.63456 -84.63787 31545 ft 425 kts 279°
2026-05-07 15:53 27.63981 -84.67061 31797 ft 424 kts 278°
2026-05-07 15:53 27.64504 -84.70337 32061 ft 423 kts 279°
2026-05-07 15:53 27.65026 -84.73596 32324 ft 422 kts 279°
2026-05-07 15:53 27.65548 -84.76848 32572 ft 421 kts 279°
2026-05-07 15:54 27.66065 -84.80094 32817 ft 420 kts 279°
2026-05-07 15:54 27.66578 -84.83336 33061 ft 419 kts 278°
2026-05-07 15:54 27.67081 -84.86529 33304 ft 419 kts 278°
2026-05-07 15:54 27.67591 -84.89767 33550 ft 418 kts 278°
2026-05-07 15:55 27.68098 -84.92989 33797 ft 417 kts 278°
2026-05-07 15:55 27.68607 -84.96213 34012 ft 417 kts 278°
2026-05-07 15:55 27.69111 -84.99430 34075 ft 414 kts 278°
2026-05-07 15:56 27.70101 -85.05788 34085 ft 410 kts 278°
2026-05-07 15:56 27.71092 -85.12106 34085 ft 409 kts 278°
2026-05-07 15:57 27.72081 -85.18436 34080 ft 409 kts 278°
2026-05-07 15:57 27.73065 -85.24758 34084 ft 409 kts 278°
2026-05-07 15:58 27.74298 -85.31025 34085 ft 411 kts 288°
2026-05-07 15:58 27.76696 -85.36909 34085 ft 413 kts 292°
2026-05-07 15:59 27.79141 -85.42785 34081 ft 414 kts 292°
2026-05-07 15:59 27.81584 -85.48665 34090 ft 414 kts 292°
2026-05-07 16:00 27.84025 -85.54550 34091 ft 413 kts 292°
2026-05-07 16:00 27.86469 -85.60438 34096 ft 413 kts 292°
2026-05-07 16:01 27.88912 -85.66322 34098 ft 413 kts 292°
2026-05-07 16:01 27.91349 -85.72206 34096 ft 413 kts 292°
2026-05-07 16:02 27.93777 -85.78097 34097 ft 413 kts 292°
2026-05-07 16:02 27.96201 -85.83992 34096 ft 413 kts 292°
2026-05-07 16:03 27.98613 -85.89853 34093 ft 413 kts 292°
2026-05-07 16:03 28.01037 -85.95748 34110 ft 413 kts 292°
2026-05-07 16:04 28.03456 -86.01647 34106 ft 412 kts 292°
2026-05-07 16:04 28.05874 -86.07526 34104 ft 412 kts 292°
2026-05-07 16:05 28.08288 -86.13403 34100 ft 411 kts 291°
2026-05-07 16:05 28.10686 -86.19281 34095 ft 411 kts 291°
2026-05-07 16:06 28.13074 -86.25148 34093 ft 411 kts 291°
2026-05-07 16:06 28.15474 -86.31025 34095 ft 411 kts 291°
2026-05-07 16:07 28.17863 -86.36898 34089 ft 410 kts 291°
2026-05-07 16:07 28.20248 -86.42790 34086 ft 410 kts 291°
2026-05-07 16:08 28.22628 -86.48669 34090 ft 410 kts 291°
2026-05-07 16:08 28.25015 -86.54552 34091 ft 411 kts 291°
2026-05-07 16:09 28.27395 -86.60444 34096 ft 411 kts 291°
2026-05-07 16:09 28.29775 -86.66336 34094 ft 411 kts 291°
2026-05-07 16:10 28.31987 -86.72298 34085 ft 408 kts 285°
2026-05-07 16:10 28.33768 -86.78420 34097 ft 408 kts 285°
2026-05-07 16:11 28.35556 -86.84530 34103 ft 407 kts 285°
2026-05-07 16:11 28.37349 -86.90628 34101 ft 407 kts 285°
2026-05-07 16:12 28.39132 -86.96723 34094 ft 406 kts 285°
2026-05-07 16:12 28.40893 -87.02807 34101 ft 405 kts 285°
2026-05-07 16:13 28.42656 -87.08884 34096 ft 405 kts 285°
2026-05-07 16:13 28.44423 -87.14952 34094 ft 404 kts 285°
2026-05-07 16:14 28.46175 -87.21015 34094 ft 404 kts 285°
2026-05-07 16:14 28.47924 -87.27088 34092 ft 404 kts 285°
2026-05-07 16:15 28.49676 -87.33163 34100 ft 404 kts 285°
2026-05-07 16:15 28.51412 -87.39199 34092 ft 404 kts 285°
2026-05-07 16:16 28.53155 -87.45267 34085 ft 403 kts 285°
2026-05-07 16:16 28.54896 -87.51328 34082 ft 403 kts 285°
2026-05-07 16:17 28.56635 -87.57399 34089 ft 403 kts 285°
2026-05-07 16:17 28.58368 -87.63471 34081 ft 403 kts 285°
2026-05-07 16:18 28.60092 -87.69537 34078 ft 403 kts 285°
2026-05-07 16:18 28.61536 -87.74622 34078 ft 403 kts 284°
2026-05-07 16:19 28.63267 -87.80690 34081 ft 403 kts 284°
2026-05-07 16:19 28.64998 -87.86766 34110 ft 403 kts 284°
2026-05-07 16:20 28.66700 -87.92804 34095 ft 403 kts 284°
2026-05-07 16:20 28.68413 -87.98871 34090 ft 402 kts 284°
2026-05-07 16:21 28.70112 -88.04930 34085 ft 401 kts 284°
2026-05-07 16:21 28.71816 -88.10985 34087 ft 401 kts 284°
2026-05-07 16:22 28.73521 -88.17043 34084 ft 401 kts 284°
2026-05-07 16:22 28.75223 -88.23092 34082 ft 401 kts 284°
2026-05-07 16:23 28.76924 -88.29153 34081 ft 401 kts 284°
2026-05-07 16:23 28.78610 -88.35210 34074 ft 401 kts 283°
2026-05-07 16:24 28.80292 -88.41267 34074 ft 401 kts 283°
2026-05-07 16:24 28.81982 -88.47333 34075 ft 401 kts 284°
2026-05-07 16:25 28.83670 -88.53396 34076 ft 401 kts 283°
2026-05-07 16:25 28.85346 -88.59458 34075 ft 400 kts 283°
2026-05-07 16:26 28.87020 -88.65519 34072 ft 400 kts 283°
2026-05-07 16:26 28.89264 -88.71324 34069 ft 409 kts 299°
2026-05-07 16:27 28.92949 -88.76362 34066 ft 414 kts 304°
2026-05-07 16:27 28.96721 -88.81334 34094 ft 414 kts 304°
2026-05-07 16:28 29.00474 -88.86317 34086 ft 413 kts 304°
2026-05-07 16:28 29.04215 -88.91300 34078 ft 413 kts 304°
2026-05-07 16:29 29.07948 -88.96280 34074 ft 412 kts 303°
2026-05-07 16:29 29.11675 -89.01256 34067 ft 412 kts 304°
2026-05-07 16:30 29.15403 -89.06226 34063 ft 412 kts 304°
2026-05-07 16:30 29.19132 -89.11197 34058 ft 412 kts 303°
2026-05-07 16:31 29.22852 -89.16176 34058 ft 412 kts 303°
2026-05-07 16:31 29.26568 -89.21164 34079 ft 411 kts 303°
2026-05-07 16:32 29.30271 -89.26145 34076 ft 410 kts 303°
2026-05-07 16:32 29.33969 -89.31109 34072 ft 409 kts 303°
2026-05-07 16:33 29.37656 -89.36066 34066 ft 408 kts 303°
2026-05-07 16:33 29.41340 -89.41022 34058 ft 408 kts 303°
2026-05-07 16:34 29.45021 -89.45989 34056 ft 408 kts 303°
2026-05-07 16:34 29.48671 -89.50910 34054 ft 408 kts 303°
2026-05-07 16:35 29.52350 -89.55870 34051 ft 408 kts 303°
2026-05-07 16:35 29.56019 -89.60833 34064 ft 408 kts 303°
2026-05-07 16:36 29.59693 -89.65814 34049 ft 409 kts 303°
2026-05-07 16:36 29.63363 -89.70809 34038 ft 409 kts 303°
2026-05-07 16:37 29.67046 -89.75817 34035 ft 410 kts 303°
2026-05-07 16:37 29.70729 -89.80819 34038 ft 410 kts 303°
2026-05-07 16:38 29.74419 -89.85834 34046 ft 410 kts 303°
2026-05-07 16:38 29.78103 -89.90853 34046 ft 410 kts 303°
2026-05-07 16:39 29.81783 -89.95882 34047 ft 410 kts 303°
2026-05-07 16:39 29.85407 -90.00957 34074 ft 406 kts 297°
2026-05-07 16:40 29.88542 -90.06349 34075 ft 405 kts 296°
2026-05-07 16:40 29.91665 -90.11759 34070 ft 405 kts 296°
2026-05-07 16:41 29.94786 -90.17162 34078 ft 405 kts 296°
2026-05-07 16:41 29.97915 -90.22563 34078 ft 404 kts 296°
2026-05-07 16:42 30.01037 -90.27963 34077 ft 404 kts 296°
2026-05-07 16:42 30.04131 -90.33330 34076 ft 404 kts 296°
2026-05-07 16:43 30.07240 -90.38738 34074 ft 404 kts 296°
2026-05-07 16:43 30.10348 -90.44151 34072 ft 404 kts 296°
2026-05-07 16:44 30.13454 -90.49562 34065 ft 404 kts 296°
2026-05-07 16:44 30.16568 -90.54986 34062 ft 405 kts 296°
2026-05-07 16:45 30.19677 -90.60414 34065 ft 405 kts 296°
2026-05-07 16:45 30.22791 -90.65867 34069 ft 406 kts 296°
2026-05-07 16:46 30.25902 -90.71316 34073 ft 406 kts 296°
2026-05-07 16:46 30.29019 -90.76777 34085 ft 406 kts 295°
2026-05-07 16:47 30.32125 -90.82232 34087 ft 406 kts 296°
2026-05-07 16:47 30.35231 -90.87685 34090 ft 405 kts 296°
2026-05-07 16:48 30.38316 -90.93110 34083 ft 405 kts 295°
2026-05-07 16:48 30.41407 -90.98561 34094 ft 403 kts 295°
2026-05-07 16:49 30.44475 -91.03990 34092 ft 403 kts 295°
2026-05-07 16:49 30.47544 -91.09412 34089 ft 403 kts 295°
2026-05-07 16:50 30.50615 -91.14847 34103 ft 402 kts 295°
2026-05-07 16:50 30.53674 -91.20265 34100 ft 401 kts 295°
2026-05-07 16:51 30.56722 -91.25665 34098 ft 399 kts 295°
2026-05-07 16:51 30.59745 -91.31057 34095 ft 398 kts 295°
2026-05-07 16:52 30.62762 -91.36434 34096 ft 397 kts 295°
2026-05-07 16:52 30.65757 -91.41774 34096 ft 397 kts 295°
2026-05-07 16:53 30.68768 -91.47142 34094 ft 396 kts 295°
2026-05-07 16:53 30.71778 -91.52512 34094 ft 396 kts 295°
2026-05-07 16:54 30.74779 -91.57877 34102 ft 395 kts 294°
2026-05-07 16:54 30.77769 -91.63228 34098 ft 394 kts 294°
2026-05-07 16:55 30.80748 -91.68577 34097 ft 394 kts 294°
2026-05-07 16:55 30.83720 -91.73928 34095 ft 393 kts 294°
2026-05-07 16:56 30.86687 -91.79270 34097 ft 393 kts 294°
2026-05-07 16:56 30.91130 -91.87291 34098 ft 393 kts 294°
2026-05-07 16:57 30.94097 -91.92636 34133 ft 393 kts 294°
2026-05-07 16:57 30.97041 -91.97952 34121 ft 387 kts 294°
2026-05-07 16:58 30.99948 -92.03222 34117 ft 386 kts 294°
2026-05-07 16:58 31.02859 -92.08494 34124 ft 387 kts 294°
2026-05-07 16:59 31.05755 -92.13736 34120 ft 387 kts 294°
2026-05-07 16:59 31.08657 -92.19022 34126 ft 387 kts 294°
2026-05-07 17:00 31.11559 -92.24316 34122 ft 387 kts 294°
2026-05-07 17:00 31.14465 -92.29612 34132 ft 387 kts 293°
2026-05-07 17:01 31.16902 -92.34059 34129 ft 387 kts 293°
2026-05-07 17:01 31.19800 -92.39351 34129 ft 387 kts 293°
2026-05-07 17:02 31.22682 -92.44613 34165 ft 386 kts 293°
2026-05-07 17:02 31.25526 -92.49904 34113 ft 379 kts 289°
2026-05-07 17:03 31.27534 -92.55504 34109 ft 373 kts 284°
2026-05-07 17:03 31.29452 -92.61152 34110 ft 374 kts 284°
2026-05-07 17:04 31.31371 -92.66815 34113 ft 375 kts 284°
2026-05-07 17:04 31.33302 -92.72482 34118 ft 375 kts 283°
2026-05-07 17:05 31.35235 -92.78153 34124 ft 375 kts 283°
2026-05-07 17:05 31.37166 -92.83842 34139 ft 376 kts 283°
2026-05-07 17:06 31.39095 -92.89535 34122 ft 376 kts 283°
2026-05-07 17:06 31.41020 -92.95223 34125 ft 376 kts 283°
2026-05-07 17:07 31.42934 -93.00918 34130 ft 376 kts 283°
2026-05-07 17:07 31.44844 -93.06616 34135 ft 376 kts 283°
2026-05-07 17:08 31.46762 -93.12322 34134 ft 377 kts 283°
2026-05-07 17:08 31.48684 -93.18031 34159 ft 377 kts 284°
2026-05-07 17:09 31.50590 -93.23704 34129 ft 376 kts 283°
2026-05-07 17:09 31.52496 -93.29415 34127 ft 376 kts 283°
2026-05-07 17:10 31.54404 -93.35127 34130 ft 377 kts 283°
2026-05-07 17:10 31.56316 -93.40854 34128 ft 377 kts 283°
2026-05-07 17:11 31.58225 -93.46578 34127 ft 377 kts 283°
2026-05-07 17:11 31.60122 -93.52313 34135 ft 377 kts 283°
2026-05-07 17:12 31.61845 -93.58091 34135 ft 373 kts 279°
2026-05-07 17:12 31.63286 -93.63931 34135 ft 372 kts 278°
2026-05-07 17:13 31.64687 -93.69774 34135 ft 372 kts 279°
2026-05-07 17:13 31.66129 -93.75609 34135 ft 372 kts 279°
2026-05-07 17:14 31.67596 -93.81440 34140 ft 372 kts 279°
2026-05-07 17:14 31.69071 -93.87280 34135 ft 373 kts 279°
2026-05-07 17:15 31.70534 -93.93126 34133 ft 373 kts 279°
2026-05-07 17:15 31.71990 -93.98980 34137 ft 373 kts 279°
2026-05-07 17:16 31.73450 -94.04834 34141 ft 374 kts 279°
2026-05-07 17:16 31.74892 -94.10627 34148 ft 366 kts 279°
2026-05-07 17:17 31.76310 -94.16355 34136 ft 364 kts 279°
2026-05-07 17:17 31.77710 -94.22043 34135 ft 365 kts 279°
2026-05-07 17:18 31.79117 -94.27768 34136 ft 365 kts 279°
2026-05-07 17:18 31.80527 -94.33501 34137 ft 365 kts 279°
2026-05-07 17:19 31.81943 -94.39239 34138 ft 365 kts 279°
2026-05-07 17:19 31.83354 -94.44980 34141 ft 365 kts 279°
2026-05-07 17:20 31.84761 -94.50721 34135 ft 365 kts 279°
2026-05-07 17:20 31.86157 -94.56470 34139 ft 365 kts 279°
2026-05-07 17:21 31.87556 -94.62231 34131 ft 366 kts 279°
2026-05-07 17:21 31.88958 -94.68000 34139 ft 367 kts 279°
2026-05-07 17:22 31.90361 -94.73770 34136 ft 367 kts 279°
2026-05-07 17:22 31.91764 -94.79554 34134 ft 367 kts 279°
2026-05-07 17:23 31.93158 -94.85338 34130 ft 367 kts 279°
2026-05-07 17:23 31.94557 -94.91124 34130 ft 368 kts 279°
2026-05-07 17:24 31.95949 -94.96920 34127 ft 368 kts 279°
2026-05-07 17:24 31.97338 -95.02720 34112 ft 368 kts 279°
2026-05-07 17:25 31.98725 -95.08472 34095 ft 356 kts 279°
2026-05-07 17:25 31.99390 -95.11239 33772 ft 348 kts 278°
2026-05-07 17:25 32.00029 -95.13969 33302 ft 344 kts 278°
2026-05-07 17:26 32.00643 -95.16677 32771 ft 341 kts 278°
2026-05-07 17:26 32.01245 -95.19369 32241 ft 339 kts 278°
2026-05-07 17:26 32.01845 -95.22053 31697 ft 338 kts 278°
2026-05-07 17:26 32.02447 -95.24723 31180 ft 336 kts 278°
2026-05-07 17:27 32.03050 -95.27381 30665 ft 335 kts 278°
2026-05-07 17:27 32.03645 -95.29998 30162 ft 334 kts 278°
2026-05-07 17:27 32.04245 -95.32640 29588 ft 333 kts 278°
2026-05-07 17:27 32.04845 -95.35272 28977 ft 333 kts 278°
2026-05-07 17:28 32.05444 -95.37904 28420 ft 332 kts 278°
2026-05-07 17:28 32.06038 -95.40523 27926 ft 330 kts 278°
2026-05-07 17:28 32.06630 -95.43126 27452 ft 327 kts 278°
2026-05-07 17:28 32.07218 -95.45707 26987 ft 324 kts 279°
2026-05-07 17:29 32.07797 -95.48266 26518 ft 322 kts 279°
2026-05-07 17:29 32.08371 -95.50807 26066 ft 320 kts 279°
2026-05-07 17:29 32.08942 -95.53334 25624 ft 318 kts 279°
2026-05-07 17:29 32.09508 -95.55842 25190 ft 315 kts 279°
2026-05-07 17:30 32.10102 -95.58329 24759 ft 314 kts 281°
2026-05-07 17:30 32.10731 -95.60788 24314 ft 312 kts 281°
2026-05-07 17:30 32.11370 -95.63226 23878 ft 310 kts 282°
2026-05-07 17:30 32.12009 -95.65655 23403 ft 308 kts 282°
2026-05-07 17:31 32.12630 -95.68033 22895 ft 306 kts 282°
2026-05-07 17:31 32.13256 -95.70457 22388 ft 304 kts 282°
2026-05-07 17:31 32.13858 -95.72806 21942 ft 301 kts 282°
2026-05-07 17:31 32.14461 -95.75164 21470 ft 299 kts 282°
2026-05-07 17:32 32.15048 -95.77507 20988 ft 297 kts 282°
2026-05-07 17:32 32.15603 -95.79854 20507 ft 296 kts 281°
2026-05-07 17:32 32.16144 -95.82197 20029 ft 295 kts 281°
2026-05-07 17:32 32.16503 -95.83774 19700 ft 295 kts 281°
2026-05-07 17:33 32.17207 -95.86864 19087 ft 294 kts 281°
2026-05-07 17:33 32.17742 -95.89190 18626 ft 293 kts 281°
2026-05-07 17:33 32.18277 -95.91509 18130 ft 293 kts 281°
2026-05-07 17:33 32.18814 -95.93824 17638 ft 291 kts 281°
2026-05-07 17:34 32.19348 -95.96126 17157 ft 290 kts 281°
2026-05-07 17:34 32.19878 -95.98412 16689 ft 288 kts 281°
2026-05-07 17:34 32.20408 -96.00698 16223 ft 287 kts 281°
2026-05-07 17:34 32.20930 -96.02965 15828 ft 284 kts 281°
2026-05-07 17:35 32.21446 -96.05205 15411 ft 282 kts 281°
2026-05-07 17:35 32.21959 -96.07433 14976 ft 280 kts 281°
2026-05-07 17:35 32.22469 -96.09648 14567 ft 279 kts 281°
2026-05-07 17:35 32.22976 -96.11858 14136 ft 278 kts 281°
2026-05-07 17:36 32.23480 -96.14054 13695 ft 277 kts 282°
2026-05-07 17:36 32.23982 -96.16239 13243 ft 275 kts 282°
2026-05-07 17:36 32.24483 -96.18424 12781 ft 275 kts 282°
2026-05-07 17:36 32.24981 -96.20599 12328 ft 274 kts 282°
2026-05-07 17:37 32.25475 -96.22760 12025 ft 271 kts 282°
2026-05-07 17:37 32.25967 -96.24920 12000 ft 274 kts 282°
2026-05-07 17:37 32.26467 -96.27102 11992 ft 275 kts 282°
2026-05-07 17:37 32.26966 -96.29284 12000 ft 275 kts 282°
2026-05-07 17:38 32.27530 -96.31447 11999 ft 277 kts 290°
2026-05-07 17:38 32.28480 -96.33444 11998 ft 282 kts 302°
2026-05-07 17:38 32.29782 -96.35194 12000 ft 285 kts 308°
2026-05-07 17:38 32.31136 -96.36901 11998 ft 285 kts 308°
2026-05-07 17:39 32.32553 -96.38545 11994 ft 288 kts 314°
2026-05-07 17:39 32.34079 -96.40077 11995 ft 288 kts 314°
2026-05-07 17:39 32.35586 -96.41588 11996 ft 285 kts 314°
2026-05-07 17:39 32.37089 -96.43091 11925 ft 281 kts 314°
2026-05-07 17:40 32.38482 -96.44703 11522 ft 273 kts 303°
2026-05-07 17:40 32.39492 -96.46576 11126 ft 268 kts 295°
2026-05-07 17:40 32.40385 -96.48485 10690 ft 269 kts 296°
2026-05-07 17:40 32.41295 -96.50418 10283 ft 269 kts 296°
2026-05-07 17:41 32.42204 -96.52347 9880 ft 268 kts 296°
2026-05-07 17:41 32.43108 -96.54274 9446 ft 267 kts 296°
2026-05-07 17:41 32.44018 -96.56216 9025 ft 266 kts 297°
2026-05-07 17:41 32.44894 -96.58086 8794 ft 259 kts 296°
2026-05-07 17:42 32.45753 -96.59921 8545 ft 252 kts 297°
2026-05-07 17:42 32.46602 -96.61730 8199 ft 251 kts 297°
2026-05-07 17:42 32.47445 -96.63529 7847 ft 249 kts 297°
2026-05-07 17:42 32.48287 -96.65323 7508 ft 248 kts 297°
2026-05-07 17:43 32.49046 -96.67150 7161 ft 247 kts 288°
2026-05-07 17:43 32.49355 -96.69125 6953 ft 240 kts 274°
2026-05-07 17:43 32.49456 -96.71076 6714 ft 236 kts 275°
2026-05-07 17:43 32.49575 -96.73005 6395 ft 235 kts 275°
2026-05-07 17:44 32.49691 -96.74933 6042 ft 235 kts 275°
2026-05-07 17:44 32.49795 -96.76860 5978 ft 237 kts 275°
2026-05-07 17:44 32.49889 -96.78818 5980 ft 239 kts 275°
2026-05-07 17:44 32.49947 -96.80118 5992 ft 239 kts 274°
2026-05-07 17:45 32.50027 -96.82081 5992 ft 239 kts 274°
2026-05-07 17:45 32.50103 -96.84052 5993 ft 240 kts 274°
2026-05-07 17:45 32.50176 -96.86031 5992 ft 240 kts 274°
2026-05-07 17:45 32.50249 -96.88001 5989 ft 240 kts 274°
2026-05-07 17:46 32.50321 -96.89978 5987 ft 240 kts 274°
2026-05-07 17:46 32.50392 -96.91955 5988 ft 240 kts 274°
2026-05-07 17:46 32.50482 -96.93940 5993 ft 248 kts 278°
2026-05-07 17:46 32.51085 -96.95826 5986 ft 240 kts 305°
2026-05-07 17:47 32.52268 -96.97125 5985 ft 231 kts 324°
2026-05-07 17:47 32.53635 -96.98218 5983 ft 240 kts 324°
2026-05-07 17:47 32.55007 -96.99316 5990 ft 241 kts 324°
2026-05-07 17:47 32.56397 -97.00429 5951 ft 239 kts 324°
2026-05-07 17:48 32.57783 -97.01540 5964 ft 241 kts 324°
2026-05-07 17:48 32.59276 -97.02439 5958 ft 243 kts 340°
2026-05-07 17:48 32.60929 -97.02765 5743 ft 237 kts 354°
2026-05-07 17:48 32.62556 -97.02773 5439 ft 231 kts 358°
2026-05-07 17:49 32.64145 -97.02748 5176 ft 225 kts 359°
2026-05-07 17:49 32.65691 -97.02735 4894 ft 220 kts 359°
2026-05-07 17:49 32.67203 -97.02727 4599 ft 214 kts 359°
2026-05-07 17:49 32.68670 -97.02719 4323 ft 208 kts
2026-05-07 17:50 32.70089 -97.02712 4064 ft 198 kts
2026-05-07 17:50 32.71435 -97.02705 3796 ft 188 kts
2026-05-07 17:50 32.72723 -97.02698 3547 ft 181 kts
2026-05-07 17:50 32.73966 -97.02692 3315 ft 176 kts
2026-05-07 17:51 32.75178 -97.02685 3078 ft 172 kts
2026-05-07 17:51 32.76357 -97.02680 2858 ft 164 kts
2026-05-07 17:51 32.77471 -97.02678 2661 ft 159 kts 360°
2026-05-07 17:51 32.78564 -97.02670 2431 ft 154 kts
2026-05-07 17:52 32.79600 -97.02664 2228 ft 146 kts
2026-05-07 17:52 32.80597 -97.02658 2032 ft 142 kts
2026-05-07 17:52 32.81587 -97.02651 1851 ft 142 kts
2026-05-07 17:52 32.82574 -97.02635 1667 ft 139 kts
2026-05-07 17:53 32.83547 -97.02624 1497 ft 140 kts 358°
2026-05-07 17:53 32.84528 -97.02639 1319 ft 140 kts 360°
2026-05-07 17:53 32.85501 -97.02648 1134 ft 141 kts
2026-05-07 17:53 32.86474 -97.02624 944 ft 140 kts
2026-05-07 17:54 32.87446 -97.02622 785 ft 139 kts
2026-05-07 17:54 32.88403 -97.02618 628 ft 138 kts
2026-05-07 17:54 32.89261 -97.02609 623 ft 100 kts
2026-05-07 17:54 32.89787 -97.02617 624 ft 57 kts 354°
2026-05-07 17:55 32.90012 -97.02736 630 ft 24 kts 330°
2026-05-07 17:55 32.90160 -97.02800 621 ft 22 kts 356°
2026-05-07 17:55 32.90318 -97.02800 620 ft 23 kts
2026-05-07 17:55 32.90454 -97.02816 625 ft 16 kts 309°
2026-05-07 17:56 32.90468 -97.02948 616 ft 17 kts 271°
2026-05-07 17:56 32.90470 -97.03095 616 ft 18 kts 270°
2026-05-07 17:56 32.90472 -97.03253 616 ft 19 kts 269°
2026-05-07 17:56 32.90385 -97.03313 621 ft 16 kts 178°
2026-05-07 17:57 32.90266 -97.03314 622 ft 18 kts 180°
2026-05-07 17:57 32.90179 -97.03314 621 ft 19 kts 180°
2026-05-07 17:57 32.89997 -97.03314 623 ft 21 kts 180°
2026-05-07 17:57 32.89849 -97.03315 623 ft 22 kts 180°
2026-05-07 17:58 32.89702 -97.03317 621 ft 17 kts 185°
2026-05-07 17:58 32.89637 -97.03416 630 ft 16 kts 226°
2026-05-07 17:58 32.89545 -97.03504 619 ft 18 kts 218°
2026-05-07 17:58 32.89449 -97.03569 621 ft 15 kts 194°
2026-05-07 17:59 32.89417 -97.03670 622 ft 11 kts 270°
2026-05-07 17:59 32.89432 -97.03735 630 ft 6 kts 338°
2026-05-07 17:59 32.89460 -97.03741 625 ft 1 kts 354°
2026-05-07 17:59 32.89470 -97.03743 624 ft 0 kts 354°
2026-05-07 18:00 32.89471 -97.03743 616 ft 0 kts 354°